Hourly Data Report for November 13, 2004

TORONTO CITY
ONTARIO

43°40'00.000" N
79°24'00.000" W
112.50 m
6158355
71508
XTO

Download Data

Hourly Data (November 2004)
Hourly Data Report for November 13, 2004
TIME
LST
Temp Definition
°C
Dew Point Definition
°C
Rel Hum Definition
%
Precip. Amount Definition
mm

Wind Dir Definition
10's deg

Wind Spd Definition
km/h
Visibility Definition
km
Stn Press Definition
kPa
Hmdx Definition


Wind Chill Definition


Weather Definition


00:00 3.0 -2.0 70   LegendMM LegendMM LegendMM 101.90     LegendNANA
01:00 2.5 -1.7 74   LegendMM LegendMM LegendMM 101.93     LegendNANA
02:00 1.7 -1.8 78   LegendMM LegendMM LegendMM 101.98     LegendNANA
03:00 1.0 -2.6 77   LegendMM LegendMM LegendMM 102.05     LegendNANA
04:00 0.7 -3.4 74   LegendMM LegendMM LegendMM 102.09     LegendNANA
05:00 0.3 -5.2 67   LegendMM LegendMM LegendMM 102.19     LegendNANA
06:00 -0.3 -6.7 62   LegendMM LegendMM LegendMM 102.24     LegendNANA
07:00 -0.7 -6.6 64   LegendMM LegendMM LegendMM 102.31     LegendNANA
08:00 -0.9 -6.5 66   LegendMM LegendMM LegendMM 102.38     LegendNANA
09:00 0.0 -7.5 57   LegendMM LegendMM LegendMM 102.42     LegendNANA
10:00 1.5 -8.5 47   LegendMM LegendMM LegendMM 102.46     LegendNANA
11:00 2.4 -14.7 27   LegendMM LegendMM LegendMM 102.52     LegendNANA
12:00 3.3 -13.6 28   LegendMM LegendMM LegendMM 102.48     LegendNANA
13:00 4.7 -10.6 32   LegendMM LegendMM LegendMM 102.42     LegendNANA
14:00 4.7 -9.0 36   LegendMM LegendMM LegendMM 102.43     LegendNANA
15:00 4.4 -8.3 39   LegendMM LegendMM LegendMM 102.45     LegendNANA
16:00 3.9 -8.2 41   LegendMM LegendMM LegendMM 102.47     LegendNANA
17:00 2.9 -7.7 46   LegendMM LegendMM LegendMM 102.50     LegendNANA
18:00 3.1 -6.9 48   LegendMM LegendMM LegendMM 102.55     LegendNANA
19:00 2.9 -7.3 47   LegendMM LegendMM LegendMM 102.58     LegendNANA
20:00 2.4 -7.0 50   LegendMM LegendMM LegendMM 102.57     LegendNANA
21:00 1.9 -6.9 52   LegendMM LegendMM LegendMM 102.59     LegendNANA
22:00 1.7 -6.8 53   LegendMM LegendMM LegendMM 102.59     LegendNANA
23:00 1.1 -6.2 58   LegendMM LegendMM LegendMM 102.62     LegendNANA

Notes on Data Quality.

Legend

  • E = Estimated
  • M = Missing
  • NA = Not Available*
  • [empty] = Indicates an unobserved value
Date modified: